WESTFORD NEEDLES, 3257

Orbit data source: Space-Track

WESTFORD NEEDLES, 3257 is space debris in LEO originally from a launch on Thu, 09 May 1963 UTC launched from the Air Force Western Test Range (AFWTR). Debris objects in space refer to the collection of defunct objects orbiting the Earth. Examples of debris include non-operational satellites, rocket bodies, and fragments generated from explosions, collisions, or faulty payload assembly.

Loading next visibility...
Identifier
3257, 1963-014BX
Orbit
LEO
Country
Flag of USUS
Related business
Manufacturer
Unknown
Mission
Spacecraft
Bus & Motor
Unknown
Mass
Unknown
Launch date (UTC)
1963-05-09 (63 years ago)
Launch vehicle
Unknown
Launch site
Air Force Western Test Range (AFWTR)
Object type
Payload
Rocket body
Debris
Shape & HBR
Unknown shape, 1.1 m
Radar Cross Section
Medium (>0.1 m² and <1 m²)

Expand to show TLE details & history
Last TLE update: 4 days ago

TLE from 4 days ago
0 WESTFORD NEEDLES
1 03257U 63014BX  25337.49105860  .00000042  00000-0  17348-1 0  9994
2 03257  87.3496 166.7551 0317609 359.6827   0.3791  8.65328082 43002
Epoch: 2025-12-03T11:47Z
TLE epoch observation values (Epoch: 2025-12-03T11:47:07.463Z)
Latitude
0.00005°
Longitude
-82.58709°
Altitude
3,327.574 km
Speed
6.51 km/s
True Right ascension
11h 07m 01s
True Declination
0° 00' 00"
Sunlit
Object was in daylight at epoch
Visualization orbit readout
Latitude
Unknown
Longitude
Unknown
Altitude
Unknown
Speed
Unknown
Apparent Right ascension
Unknown
Apparent Declination
Unknown
Sunlit
N/A
Visualization observer readout
Local Sidereal Time
16:58:51
Azimuth
Unknown
Elevation
Unknown
Doppler factor
Unknown
Orbital elements
Apogee altitude
3,959.769 km
Perigee altitude
3,323.301 km
Semi-major axis
10,019.672 km
Eccentricity
0.03176
Inclination
87.3496°
RAAN
166.7551°
Arg. of periapsis
359.6827°
True anomaly
0.40417°
Mean anomaly
0.3791°
Eccentric anomaly
0.39154°
Mean motion
2.16403 °/min
Orbital period
166.36 mins
BSTAR
0.017348
Loading maneuver chart data...
Computing Atmospheric mass density...

Documentation

Showing up to 5 results
|